This demonstration page uses our WeatherBlox Daily Observations layout. Learn more.

Left ArrowRight Arrow

39.08367, -84.50855

Hourly Observations for October 9, 2018

Temp ( °F °C ) Dew Point ( °F °C ) Humidity (%) Winds ( mph kmh ) Pressure ( in mb ) Visibility ( mi km ) Precip ( " mm )
12:31 am 00:31 Clear with Mist and Fog 70 21.1 70 21.1 100 100 N N/A 30.12 1020 1 2 N/A
12:42 am 00:42 Clear with Mist and Fog 70 21.1 70 21.1 100 100 N N/A 30.12 1020 4 6 N/A
12:53 am 00:53 Clear with Mist and Fog 70 21.1 70 21.1 100 100 N N/A 30.13 1020 5 8 N/A
1:14 am 01:14 Clear with Mist and Fog 69 20.6 69 20.6 100 100 N N/A 30.12 1020 2 2 N/A
1:24 am 01:24 Clear with Mist and Fog 70 21.1 70 21.1 100 100 N N/A 30.12 1020 4 6 N/A
1:48 am 01:48 Clear with Mist and Fog 70 21 70 21 100 100 N N/A 30.12 1020 2 3 N/A
1:53 am 01:53 Clear with Mist and Fog 69 20.6 69 20.6 100 100 N N/A 30.13 1020 1 1 N/A
2:01 am 02:01 Clear with Mist and Fog 69 20.6 69 20.6 100 100 N N/A 30.12 1020 2 3 N/A
2:16 am 02:16 Clear with Mist and Fog 69 20.6 69 20.6 100 100 N N/A 30.12 1020 1 2 N/A
2:21 am 02:21 Clear with Mist and Fog 68 20 68 20 100 100 N N/A 30.12 1020 4 6 N/A
2:39 am 02:39 Clear with Mist and Fog 68 20 68 20 100 100 N N/A 30.12 1020 1 1 N/A
2:53 am 02:53 Clear with Mist and Fog 68 20 68 20 100 100 N N/A 30.14 1021 2 2 N/A
2:57 am 02:57 Clear with Mist and Fog 68 20 68 20 100 100 N N/A 30.12 1020 4 6 N/A
3:18 am 03:18 Clear with Mist and Fog 68 20 68 20 100 100 N N/A 30.12 1020 2 3 N/A
3:25 am 03:25 Clear with Fog 68 20 68 20 100 100 N N/A 30.12 1020 0 0 N/A
3:36 am 03:36 Clear with Mist and Fog 68 20 68 20 100 100 N N/A 30.12 1020 1 2 N/A
3:46 am 03:46 Clear with Mist and Fog 68 20 68 20 100 100 N N/A 30.12 1020 3 5 N/A
3:53 am 03:53 Clear with Mist and Fog 68 20 68 20 100 100 N N/A 30.13 1020 4 6 N/A
3:59 am 03:59 Clear with Mist and Fog 67 19.4 67 19.4 100 100 N N/A 30.12 1020 2 3 N/A
4:16 am 04:16 Clear with Mist and Fog 67 19.4 67 19.4 100 100 N N/A 30.12 1020 3 5 N/A
4:26 am 04:26 Clear with Mist and Fog 67 19.4 67 19.4 100 100 N N/A 30.12 1020 2 2 N/A
4:53 am 04:53 Clear with Mist and Fog 67 19.4 67 19.4 100 100 N N/A 30.13 1020 1 2 N/A
5:00 am 05:00 Clear with Fog 67 19.4 67 19.4 100 100 N N/A 30.12 1020 1 1 N/A
5:12 am 05:12 Clear with Mist and Fog 67 19.4 67 19.4 100 100 N N/A 30.12 1020 2 3 N/A
5:38 am 05:38 Clear with Mist and Fog 66 18.9 66 18.9 100 100 N N/A 30.12 1020 4 6 N/A
5:53 am 05:53 Clear with Mist and Fog 66 18.9 66 18.9 100 100 N N/A 30.14 1021 4 6 N/A
6:12 am 06:12 Clear with Mist and Fog 66 18.9 66 18.9 100 100 N N/A 30.12 1020 1 2 N/A
6:22 am 06:22 Clear with Fog 65 18.3 65 18.3 100 100 N N/A 30.12 1020 1 1 N/A
6:30 am 06:30 Mostly Cloudy with Fog 66 18.9 66 18.9 100 100 N N/A 30.12 1020 1 1 N/A
6:44 am 06:44 Mostly Clear with Mist and Fog 66 18.9 66 18.9 100 100 N N/A 30.12 1020 1 2 N/A
6:47 am 06:47 Mostly Cloudy with Mist and Fog 66 19 66 19 100 100 N N/A 30.12 1020 1 1 N/A
6:53 am 06:53 Clear with Patchy Fog 65 18.3 65 18.3 100 100 N N/A 30.15 1021 8 13 N/A
7:53 am 07:53 Sunny with Patchy Fog 65 18.3 65 18.3 100 100 N N/A 30.15 1021 10 16 N/A
8:53 am 08:53 Mostly Sunny 69 20.6 69 20.6 100 100 N N/A 30.16 1021 10 16 N/A
9:53 am 09:53 Partly Cloudy 74 23.3 71 21.7 91 91 N N/A 30.16 1021 10 16 N/A
10:53 am 10:53 Mostly Cloudy 77 25 70 21.1 79 79 VRB 7 11 30.16 1021 10 16 N/A
11:53 am 11:53 Mostly Cloudy 80 26.7 71 21.7 74 74 SSE 9 15 30.15 1021 10 16 N/A
12:53 pm 12:53 Partly Cloudy 82 27.8 71 21.7 69 69 S 9 15 30.12 1020 10 16 N/A
1:53 pm 13:53 Partly Cloudy 84 28.9 68 20 59 59 S 9 15 30.09 1019 10 16 N/A
2:53 pm 14:53 Mostly Cloudy 83 28.3 67 19.4 59 59 S 14 22 30.06 1018 10 16 N/A
3:53 pm 15:53 Mostly Sunny 84 28.9 67 19.4 57 57 S 10 17 30.04 1017 10 16 N/A
4:53 pm 16:53 Mostly Sunny 81 27.2 66 18.9 61 61 SE 9 15 30.03 1017 10 16 N/A
5:53 pm 17:53 Mostly Sunny 81 27.2 65 18.3 58 58 SE 8 13 30.02 1017 10 16 N/A
6:53 pm 18:53 Mostly Sunny 78 25.6 65 18.3 64 64 SSE 6 9 30.02 1017 10 16 N/A
7:53 pm 19:53 Clear 76 24.4 65 18.3 69 69 SE 5 7 30.01 1016 10 16 N/A
8:53 pm 20:53 Clear 73 22.8 65 18.3 76 76 SE 5 7 30.01 1016 10 16 N/A
9:53 pm 21:53 Clear 71 21.7 66 18.9 84 84 N N/A 30.01 1016 10 16 N/A
10:53 pm 22:53 Clear 68 20 67 19.4 96 96 N N/A 30.00 1016 10 16 N/A
11:53 pm 23:53 Clear 66 18.9 66 18.9 100 100 N N/A 30.00 1016 10 16 N/A

Powered by AerisWeather